Location: Ehrke Reservoir
(40.0279°N, 99.6641°W)
Time: 16:46:54
(UTC+00:00)

Cosmos 724 - Pass Details

Date: 20 January 2020
Orbit: 864 x 931 km, 65.6° (Epoch: 20 February)

Event Time Altitude Azimuth Distance (km) Brightness Sun altitude
Rises 00:37:56 0° 197° (SSW) 3,521 7.9 -10.8°
Reaches altitude 10° 00:40:29 10° 193° (SSW) 2,573 7.1 -11.2°
Maximum altitude 00:46:19 58° 116° (ESE) 1,034 4.4 -12.3°
Enters shadow 00:51:45 12° 39° (NE) 2,419 6.1 -13.3°
